This is the latest recevied weather packets stored in our database for station/object N5COP-13. If no packets are shown the sender has not sent any weather packets the latest 10 day(s).
| Time | Temp. | Humidity | Pressure | Rain* | Wind** | Luminosity | Snow |
|---|---|---|---|---|---|---|---|
| 1777840378 | 24.44° C | 25% | 1015.3 hPa | 0 mm | - | 678 W/m² | - |
| 1777840074 | 25° C | 25% | 1015.8 hPa | 0 mm | - | 715 W/m² | - |
| 1777839772 | 25° C | 25% | 1015.6 hPa | 0 mm | - | 707 W/m² | - |
| 1777839470 | 25° C | 24% | 1016 hPa | 0 mm | - | 681 W/m² | - |
| 1777839167 | 24.44° C | 26% | 1016 hPa | 0 mm | - | 719 W/m² | - |
| 1777838864 | 25° C | 25% | 1016.3 hPa | 0 mm | - | 819 W/m² | - |
| 1777838560 | 24.44° C | 26% | 1016.3 hPa | 0 mm | - | 819 W/m² | - |
| 1777838257 | 24.44° C | 26% | 1016.6 hPa | 0 mm | - | 837 W/m² | - |
| 1777837954 | 24.44° C | 25% | 1016.4 hPa | 0 mm | - | 825 W/m² | - |
| 1777837652 | 25° C | 26% | 1016.6 hPa | 0 mm | - | 873 W/m² | - |
| 1777837347 | 23.89° C | 26% | 1016.6 hPa | 0 mm | - | 768 W/m² | - |
| 1777837043 | 24.44° C | 27% | 1016.8 hPa | 0 mm | - | 834 W/m² | - |
| 1777836740 | 23.89° C | 26% | 1017 hPa | 0 mm | - | 861 W/m² | - |
| 1777836436 | 23.89° C | 27% | 1016.8 hPa | 0 mm | - | 881 W/m² | - |
| 1777836131 | 23.89° C | 27% | 1016.9 hPa | 0 mm | - | 759 W/m² | - |
| 1777835828 | 23.89° C | 28% | 1016.9 hPa | 0 mm | - | 851 W/m² | - |
| 1777835525 | 23.89° C | 27% | 1017.2 hPa | 0 mm | - | 913 W/m² | - |
| 1777835222 | 23.33° C | 27% | 1017.1 hPa | 0 mm | - | 855 W/m² | - |
| 1777834919 | 22.78° C | 27% | 1017.4 hPa | 0 mm | - | 777 W/m² | - |
| 1777834616 | 22.78° C | 28% | 1017.4 hPa | 0 mm | - | 787 W/m² | - |
| 1777834311 | 23.33° C | 28% | 1017.5 hPa | 0 mm | - | 706 W/m² | - |
| 1777834006 | 22.78° C | 26% | 1017.5 hPa | 0 mm | - | 758 W/m² | - |
| 1777833703 | 23.33° C | 27% | 1017.9 hPa | 0 mm | - | 777 W/m² | - |
| 1777833399 | 22.78° C | 30% | 1018 hPa | 0 mm | - | 711 W/m² | - |
| 1777833096 | 22.78° C | 28% | 1017.9 hPa | 0 mm | - | 772 W/m² | - |
* Rain latest hour (hover to see other rain measurements)
** Current wind speed in m/s (hover to see current wind gust speed)